Le nostre stazioni meteo in Italia

Pubblicità
Il mio iltempo24.it
Messina, Italia (16420): Temperatura & dewpoint: 15.08.2019 14:00:00 - 21.08.2019 14:00:00 (CEST)Messina, Italia (16420): velocità del vento: 15.08.2019 14:00:00 - 21.08.2019 14:00:00 (CEST)Messina, Italia (16420): direzione del vento: 15.08.2019 14:00:00 - 21.08.2019 14:00:00 (CEST)Messina, Italia (16420): reduced air pressure: 15.08.2019 14:00:00 - 21.08.2019 14:00:00 (CEST)Messina, Italia (16420): visibility: 15.08.2019 14:00:00 - 21.08.2019 14:00:00 (CEST)Messina, Italia (16420): ore di luce: 15.08.2019 14:00:00 - 21.08.2019 14:00:00 (CEST)
Data & Tempo tt [°C] td [°C] ff [km/h] ff [kn] dd ppp [hPa] vv [km] sd [min]
21.08.2019 14:00:00 31,4 22,1 15 8 N 1016,6 20 60
21.08.2019 13:00:00 31,6 22,0 9 5 N 1016,6 20 60
21.08.2019 12:00:00 31,0 22,9 18 10 NE 1016,8 20 60
21.08.2019 11:00:00 30,4 23,1 15 8 NE 1017,0 20 60
21.08.2019 10:00:00 29,4 23,1 11 6 NE 1017,0 20 60
21.08.2019 09:00:00 28,2 24,0 9 5 N 1017,0 20 60
21.08.2019 08:00:00 26,6 23,9 9 5 NNE 1016,6 20 24
21.08.2019 07:00:00 26,0 23,7 5 3 NE 1016,3 20 0
21.08.2019 06:00:00 25,6 23,7 4 2 NNE 1016,3 20 -
21.08.2019 05:00:00 25,2 23,3 4 2 NNE 1016,3 20 -
21.08.2019 04:00:00 25,0 21,9 0 0 N 1016,3 20 -
21.08.2019 03:00:00 25,0 21,9 0 0 N 1016,3 20 -
21.08.2019 02:00:00 25,6 21,7 2 1 OSO 1016,5 20 -
21.08.2019 01:00:00 25,8 21,3 4 2 OSO 1016,6 20 -
21.08.2019 00:00:00 26,0 21,2 5 3 OSO 1016,6 20 -
20.08.2019 23:00:00 26,2 21,9 4 2 OSO 1016,6 20 -
20.08.2019 22:00:00 26,6 23,3 5 3 SO 1016,6 20 -
20.08.2019 21:00:00 27,0 24,7 5 3 SO 1016,2 20 -
20.08.2019 20:00:00 27,0 24,7 9 5 SSO 1016,2 20 0
20.08.2019 19:00:00 28,0 23,8 9 5 SSO 1016,2 20 60
20.08.2019 18:00:00 30,0 18,4 13 7 SSO 1016,2 20 60
20.08.2019 17:00:00 29,4 19,4 16 9 SSO 1016,2 20 60
20.08.2019 16:00:00 30,0 18,4 18 10 SSO 1016,2 20 60
20.08.2019 15:00:00 30,4 15,3 21 11 SSO 1016,4 20 60
20.08.2019 14:00:00 30,8 12,2 21 11 SSO 1016,4 20 60
20.08.2019 13:00:00 29,8 18,3 16 9 SSO 1017,0 20 60
20.08.2019 12:00:00 29,2 22,0 9 5 ENE 1017,0 20 60
20.08.2019 11:00:00 29,4 23,4 11 6 ENE 1016,4 20 60
20.08.2019 10:00:00 28,8 23,7 15 8 ENE 1016,3 20 60
20.08.2019 09:00:00 28,0 23,2 13 7 NE 1016,3 20 60
20.08.2019 08:00:00 26,8 23,5 8 4 NNO 1016,3 20 48
20.08.2019 07:00:00 25,8 23,7 8 4 NNO 1016,3 20 0
20.08.2019 06:00:00 25,8 23,5 4 2 N 1016,3 10 -
20.08.2019 05:00:00 25,8 23,3 2 1 N 1016,3 10 -
20.08.2019 04:00:00 25,8 22,9 5 3 N 1016,3 10 -
20.08.2019 03:00:00 25,6 22,9 4 2 NNE 1016,3 10 -
20.08.2019 02:00:00 25,6 21,9 4 2 NNE 1016,3 10 -
20.08.2019 01:00:00 25,4 21,7 0 0 N 1016,3 10 -
20.08.2019 00:00:00 25,8 21,3 2 1 OSO 1016,3 10 -
19.08.2019 23:00:00 26,2 21,2 0 0 N 1016,3 10 -
19.08.2019 22:00:00 26,8 21,6 4 2 OSO 1016,2 10 -
19.08.2019 21:00:00 27,2 21,7 5 3 OSO 1016,2 10 -
19.08.2019 20:00:00 28,0 21,8 11 6 SSO 1015,6 20 0
19.08.2019 19:00:00 28,8 22,1 9 5 SSO 1015,9 20 60
19.08.2019 18:00:00 29,4 21,6 13 7 SSO 1016,1 20 60
19.08.2019 17:00:00 29,6 21,0 8 4 S 1016,2 20 60
19.08.2019 16:00:00 29,6 22,8 9 5 E 1016,2 20 60
19.08.2019 15:00:00 29,4 24,3 8 4 E 1016,2 20 60
19.08.2019 14:00:00 29,6 23,8 11 6 ENE 1016,2 20 60
19.08.2019 13:00:00 29,4 24,7 13 7 ENE 1016,1 20 60
19.08.2019 12:00:00 29,0 24,8 13 7 E 1016,1 20 60
19.08.2019 11:00:00 29,0 24,3 16 9 ENE 1016,1 20 60
19.08.2019 10:00:00 28,0 23,4 13 7 ENE 1015,7 20 60
19.08.2019 09:00:00 27,0 23,5 9 5 ENE 1015,6 20 60
19.08.2019 08:00:00 25,8 21,5 8 4 NE 1015,3 20 60
19.08.2019 07:00:00 24,0 22,1 2 1 N 1015,3 20 6
19.08.2019 06:00:00 24,0 20,3 2 1 NNE 1015,3 20 -
19.08.2019 05:00:00 24,2 19,7 4 2 N 1015,4 20 -
19.08.2019 04:00:00 24,4 21,9 0 0 N 1015,4 20 -
19.08.2019 03:00:00 25,4 22,1 0 0 N 1015,4 20 -
19.08.2019 02:00:00 25,6 20,8 0 0 N 1015,4 20 -
19.08.2019 01:00:00 25,8 20,8 5 3 OSO 1015,3 20 -
19.08.2019 00:00:00 26,0 21,0 5 3 OSO 1015,3 20 -
18.08.2019 23:00:00 26,2 22,3 8 4 OSO 1015,3 20 -
18.08.2019 22:00:00 26,4 23,1 5 3 SO 1015,3 20 -
18.08.2019 21:00:00 27,0 23,7 13 7 SSO 1015,2 20 -
18.08.2019 20:00:00 27,2 23,2 9 5 SSO 1015,2 20 0
18.08.2019 19:00:00 27,8 23,2 9 5 SSO 1015,2 20 60
18.08.2019 18:00:00 29,0 21,3 5 3 SSO 1015,2 20 60
18.08.2019 17:00:00 29,8 21,7 11 6 SSE 1015,2 20 60
18.08.2019 16:00:00 28,6 21,9 9 5 E 1015,9 20 60
18.08.2019 15:00:00 28,8 22,6 9 5 E 1015,9 20 60
18.08.2019 14:00:00 29,0 22,3 8 4 ESE 1015,9 20 60
18.08.2019 13:00:00 30,0 20,6 21 11 NE 1015,9 20 60
18.08.2019 12:00:00 29,8 20,9 18 10 ENE 1015,9 20 60
18.08.2019 11:00:00 29,2 20,4 15 8 NE 1015,9 20 60
18.08.2019 10:00:00 28,0 22,0 15 8 NE 1015,8 20 60
18.08.2019 09:00:00 27,2 21,9 9 5 NE 1015,7 20 60
18.08.2019 08:00:00 25,6 22,1 8 4 NNO 1015,6 20 60
18.08.2019 07:00:00 25,0 22,3 5 3 N 1015,6 20 12
18.08.2019 06:00:00 25,0 22,1 8 4 NNO 1015,6 10 -
18.08.2019 05:00:00 24,6 21,9 5 3 NNO 1015,7 10 -
18.08.2019 04:00:00 24,8 22,1 8 4 NO 1015,7 10 -
18.08.2019 03:00:00 25,0 22,3 5 3 NO 1016,1 10 -
18.08.2019 02:00:00 25,0 22,3 8 4 NO 1016,1 10 -
18.08.2019 01:00:00 25,2 22,3 8 4 NO 1016,1 10 -
18.08.2019 00:00:00 25,6 22,5 8 4 NO 1015,8 10 -
17.08.2019 23:00:00 25,6 21,9 8 4 NO 1015,6 10 -
17.08.2019 22:00:00 26,0 22,1 5 3 NO 1015,6 10 -
17.08.2019 21:00:00 26,6 21,8 8 4 NNO 1015,5 10 -
17.08.2019 20:00:00 26,8 21,6 8 4 N 1015,2 20 0
17.08.2019 19:00:00 27,8 21,1 15 8 NE 1015,3 20 54
17.08.2019 18:00:00 29,2 20,7 16 9 NE 1015,3 20 60
17.08.2019 17:00:00 29,6 20,5 18 10 NE 1015,3 20 60
17.08.2019 16:00:00 30,0 21,7 11 6 NNE 1015,3 20 60
17.08.2019 15:00:00 29,8 20,4 15 8 NNE 1015,9 20 54
17.08.2019 14:00:00 29,0 21,3 13 7 NE 1015,9 20 36
17.08.2019 13:00:00 30,4 19,7 18 10 NE 1015,8 20 60
17.08.2019 12:00:00 30,2 19,9 21 11 ENE 1015,5 20 60
17.08.2019 11:00:00 29,2 20,9 21 11 ENE 1015,5 20 60
17.08.2019 10:00:00 28,6 20,3 13 7 NE 1015,5 20 60
17.08.2019 09:00:00 27,0 20,8 8 4 NNO 1015,5 20 60
17.08.2019 08:00:00 25,8 21,9 5 3 N 1015,2 20 36
17.08.2019 07:00:00 24,6 21,9 5 3 NNO 1015,1 20 0
17.08.2019 06:00:00 24,8 22,1 9 5 NO 1015,1 20 0
17.08.2019 05:00:00 24,8 22,1 5 3 NO 1015,1 10 -
17.08.2019 04:00:00 25,0 21,9 8 4 NNO 1015,2 10 -
17.08.2019 03:00:00 25,2 21,5 8 4 NO 1015,3 10 -
17.08.2019 02:00:00 25,4 21,3 5 3 NO 1015,3 10 -
17.08.2019 01:00:00 26,0 21,7 8 4 NO 1015,3 10 -
17.08.2019 00:00:00 26,0 21,4 8 4 NNO 1015,3 10 -
16.08.2019 23:00:00 26,0 21,4 5 3 NO 1015,1 10 -
16.08.2019 22:00:00 26,0 21,2 8 4 NO 1014,9 10 -
16.08.2019 21:00:00 26,8 21,1 5 3 NNO 1014,2 10 -
16.08.2019 20:00:00 27,2 20,8 8 4 NNE 1014,2 20 0
16.08.2019 19:00:00 28,0 19,3 15 8 NE 1014,1 20 60
16.08.2019 18:00:00 29,4 18,8 9 5 NNE 1014,2 20 60
16.08.2019 17:00:00 29,2 19,8 11 6 N 1014,2 20 60
16.08.2019 16:00:00 30,0 20,3 13 7 NNO 1014,3 20 60
16.08.2019 15:00:00 29,6 19,6 15 8 NNO 1014,7 20 60
16.08.2019 14:00:00 29,0 18,5 11 6 NNE 1014,9 20 60
16.08.2019 13:00:00 29,0 17,5 13 7 NNO 1015,2 20 60
16.08.2019 12:00:00 29,0 17,5 11 6 N 1015,2 20 60
16.08.2019 11:00:00 28,4 19,9 9 5 O 1015,1 20 60
16.08.2019 10:00:00 28,4 20,4 13 7 SE 1014,7 20 60
16.08.2019 09:00:00 27,4 20,5 11 6 NNO 1014,1 20 60
16.08.2019 08:00:00 26,0 21,0 11 6 NO 1013,9 20 42
16.08.2019 07:00:00 25,6 21,5 13 7 NO 1013,9 20 0
16.08.2019 06:00:00 25,8 21,3 11 6 NNO 1013,7 20 -
16.08.2019 05:00:00 25,8 20,8 9 5 NO 1013,9 20 -
16.08.2019 04:00:00 26,2 21,4 13 7 ONO 1013,7 20 -
16.08.2019 03:00:00 26,4 22,0 18 10 ONO 1013,6 20 -
16.08.2019 02:00:00 26,4 22,5 21 11 ONO 1014,0 20 -
16.08.2019 01:00:00 26,6 22,7 21 11 ONO 1014,2 20 -
16.08.2019 00:00:00 26,8 22,7 16 9 NO 1014,2 20 -
15.08.2019 23:00:00 27,0 23,0 15 8 NO 1014,1 20 -
15.08.2019 22:00:00 27,0 22,8 13 7 NO 1013,9 20 -
15.08.2019 21:00:00 27,0 22,6 18 10 ONO 1013,2 20 -
15.08.2019 20:00:00 27,2 22,4 18 10 NO 1013,0 20 0
15.08.2019 19:00:00 27,4 21,7 18 10 NO 1012,5 20 54
15.08.2019 18:00:00 28,2 20,7 18 10 NO 1012,7 20 60
15.08.2019 17:00:00 29,0 20,2 16 9 ONO 1012,7 20 60
15.08.2019 16:00:00 29,0 18,8 16 9 N 1012,7 20 60
15.08.2019 15:00:00 29,6 19,3 15 8 N 1012,9 20 60
15.08.2019 14:00:00 28,6 18,7 11 6 N 1013,0 20 60

tt = Temperatura
td = dewpoint
ff = velocità del vento
dd = direzione del vento
ppp = reduced air pressure
vv = visibility
sd = ore di luce

Stazioni seguenti

WeatherPro
AMSI
MeteoEarth